This is the latest recevied weather packets stored in our database for station/object DH5DY-6. If no packets are shown the sender has not sent any weather packets the latest 10 day(s).
| Time | Temp. | Humidity | Pressure | Rain* | Wind** | Luminosity | Snow |
|---|---|---|---|---|---|---|---|
| 1777494479 | 10° C | 43% | 1025.6 hPa | 0 mm | - | 0 W/m² | - |
| 1777493878 | 10° C | 43% | 1025.5 hPa | 0 mm | - | 0 W/m² | - |
| 1777492679 | 10° C | 45% | 1025.2 hPa | 0 mm | - | 0 W/m² | - |
| 1777492078 | 10.56° C | 43% | 1025.2 hPa | 0 mm | - | 0 W/m² | - |
| 1777490879 | 11.11° C | 41% | 1024.9 hPa | 0 mm | - | 0 W/m² | - |
| 1777490279 | 11.11° C | 38% | 1024.8 hPa | 0 mm | - | 0 W/m² | - |
| 1777489079 | 12.22° C | 35% | 1024.6 hPa | 0 mm | - | 0 W/m² | - |
| 1777488479 | 12.78° C | 33% | 1024.4 hPa | 0 mm | - | 7 W/m² | - |
| 1777487879 | 12.78° C | 32% | 1024.3 hPa | 0 mm | - | 9 W/m² | - |
| 1777487279 | 13.33° C | 31% | 1024.1 hPa | 0 mm | - | 12 W/m² | - |
| 1777486678 | 13.89° C | 32% | 1024.1 hPa | 0 mm | - | 32 W/m² | - |
| 1777486078 | 14.44° C | 31% | 1024 hPa | 0 mm | - | 46 W/m² | - |
| 1777485479 | 14.44° C | 31% | 1023.9 hPa | 0 mm | - | 70 W/m² | - |
| 1777484878 | 15° C | 30% | 1023.9 hPa | 0 mm | - | 97 W/m² | - |
| 1777484278 | 15° C | 29% | 1023.8 hPa | 0 mm | - | 123 W/m² | - |
| 1777483678 | 15.56° C | 29% | 1023.7 hPa | 0 mm | - | 149 W/m² | - |
| 1777483078 | 15.56° C | 29% | 1023.6 hPa | 0 mm | - | 181 W/m² | - |
| 1777482478 | 16.11° C | 30% | 1023.5 hPa | 0 mm | - | 209 W/m² | - |
| 1777481879 | 16.67° C | 30% | 1023.5 hPa | 0 mm | - | 237 W/m² | - |
| 1777481278 | 16.11° C | 29% | 1023.4 hPa | 0 mm | - | 265 W/m² | - |
| 1777480678 | 16.11° C | 30% | 1023.2 hPa | 0 mm | - | 290 W/m² | - |
| 1777480078 | 16.67° C | 28% | 1023.2 hPa | 0 mm | - | 320 W/m² | - |
| 1777479478 | 16.67° C | 29% | 1023.2 hPa | 0 mm | - | 341 W/m² | - |
| 1777478278 | 16.67° C | 28% | 1023 hPa | 0 mm | - | 397 W/m² | - |
| 1777477678 | 17.22° C | 28% | 1023.1 hPa | 0 mm | - | 425 W/m² | - |
* Rain latest hour (hover to see other rain measurements)
** Current wind speed in m/s (hover to see current wind gust speed)